This is the latest recevied weather packets stored in our database for station/object KC3SOZ. If no packets are shown the sender has not sent any weather packets the latest 10 day(s).
| Time | Temp. | Humidity | Pressure | Rain* | Wind** | Luminosity | Snow |
|---|---|---|---|---|---|---|---|
| 1778210862 | 12.22° C | 62% | 1011.3 hPa | 0 mm | - | 0 W/m² | - |
| 1778210559 | 12.22° C | 61% | 1011.1 hPa | 0 mm | - | 0 W/m² | - |
| 1778210255 | 12.22° C | 61% | 1011.2 hPa | 0 mm | - | 0 W/m² | - |
| 1778209952 | 12.78° C | 61% | 1011.1 hPa | 0 mm | - | 0 W/m² | - |
| 1778209648 | 12.78° C | 59% | 1011 hPa | 0 mm | - | 0 W/m² | - |
| 1778209346 | 12.78° C | 59% | 1010.8 hPa | 0 mm | - | 0 W/m² | - |
| 1778209042 | 12.78° C | 60% | 1010.8 hPa | 0 mm | - | 0 W/m² | - |
| 1778208739 | 12.78° C | 60% | 1010.9 hPa | 0 mm | - | 0 W/m² | - |
| 1778208435 | 12.22° C | 61% | 1010.8 hPa | 0 mm | - | 0 W/m² | - |
| 1778208132 | 10° C | 69% | 1010.8 hPa | 0 mm | - | 0 W/m² | - |
| 1778207829 | 9.44° C | 89% | 1010.7 hPa | 0 mm | - | 0 W/m² | - |
| 1778207527 | 10° C | 88% | 1010.6 hPa | 0 mm | - | 0 W/m² | - |
| 1778207222 | 8.89° C | 88% | 1010.6 hPa | 0 mm | - | 0 W/m² | - |
| 1778206919 | 8.89° C | 88% | 1010.5 hPa | 0 mm | - | 0 W/m² | - |
| 1778206615 | 8.89° C | 87% | 1010.1 hPa | 0 mm | - | 0 W/m² | - |
| 1778206310 | 9.44° C | 90% | 1010.4 hPa | 0 mm | - | 0 W/m² | - |
| 1778206009 | 9.44° C | 89% | 1010.3 hPa | 0 mm | - | 0 W/m² | - |
| 1778205706 | 9.44° C | 87% | 1010.3 hPa | 0 mm | - | 0 W/m² | - |
| 1778205403 | 9.44° C | 86% | 1010.2 hPa | 0 mm | - | 0 W/m² | - |
| 1778205100 | 9.44° C | 84% | 1010 hPa | 0 mm | - | 0 W/m² | - |
| 1778204797 | 10° C | 84% | 1010.1 hPa | 0 mm | - | 0 W/m² | - |
| 1778204493 | 10° C | 83% | 1010.1 hPa | 0 mm | - | 0 W/m² | - |
| 1778204189 | 10° C | 83% | 1010.1 hPa | 0 mm | - | 0 W/m² | - |
| 1778203886 | 10° C | 83% | 1010.1 hPa | 0 mm | - | 0 W/m² | - |
| 1778203583 | 10° C | 82% | 1010 hPa | 0 mm | - | 0 W/m² | - |
* Rain latest hour (hover to see other rain measurements)
** Current wind speed in m/s (hover to see current wind gust speed)